GW0294 Weather Reports


time (UTC)temp
C
wind
direction
speed
KPH
gust
KPH
rain 1hr
cm
rain 24hr
cm
rain mn
cm
humidity
%
barometer
mb
20260906125824 17 67 0.0 0.0 0.00 0.00 0.00 97 1023.4
20260906125721 17 68 0.0 0.0 0.00 0.00 0.00 97 1023.3
20260906124738 17 137 0.0 0.0 0.00 0.00 0.00 97 1023.3
20260906121722 16 67 0.0 0.0 0.00 0.00 0.00 96 1022.8
20260906115821 17 67 0.0 0.0 0.00 0.00 0.00 97 1022.7
20260906114823 17 45 0.0 0.0 0.00 0.00 0.00 97 1022.4
20260906113821 17 45 0.0 0.0 0.00 0.00 0.00 97 1022.1
20260906112822 17 45 0.0 0.0 0.00 0.00 0.00 97 1022.0
20260906110921 17 45 0.0 0.0 0.00 0.00 0.00 96 1022.0
20260906110019 17 22 0.0 0.0 0.00 0.00 0.00 96 1022.0
20260906103022 17 22 0.0 0.0 0.00 0.00 0.00 96 1021.8
20260906101021 17 22 0.0 0.0 0.00 0.00 0.00 97 1021.9
20260906094119 18 22 0.0 0.0 0.00 0.00 0.00 96 1021.2
20260906092121 18 180 0.0 0.0 0.00 0.00 0.00 97 1021.2
20260906091122 18 22 0.0 0.0 0.00 0.00 0.00 97 1021.2
20260906090121 18 30 0.0 0.0 0.00 0.00 0.00 96 1021.1
20260906085220 18 22 0.0 0.0 0.00 0.00 0.00 97 1021.2
20260906084221 18 40 0.0 0.0 0.00 0.00 0.00 97 1021.3
20260906080322 19 37 0.0 0.0 0.00 0.00 0.00 96 1021.3
20260906075320 19 22 0.0 0.0 0.00 0.00 0.00 96 1021.1
20260906075219 19 22 0.0 0.0 0.00 0.00 0.00 97 1021.0
20260906074220 19 22 0.0 0.0 0.00 0.00 0.00 96 1021.2
20260906073220 19 58 0.0 0.0 0.00 0.00 0.00 96 1021.3
20260906072222 19 180 0.0 0.0 0.00 0.00 0.00 96 1021.4
20260906071222 19 202 0.0 0.0 0.00 0.00 0.00 97 1021.3
20260906070219 19 48 0.0 0.0 0.00 0.00 0.00 96 1021.3
20260906065220 18 67 0.0 0.0 0.00 0.00 0.00 95 1021.5
20260906064237 18 45 0.0 0.0 0.00 0.00 0.00 96 1021.5
20260906063222 18 45 0.0 0.0 0.00 0.00 0.00 96 1021.6
20260906062320 18 45 0.0 0.0 0.00 0.00 0.00 96 1021.7
20260906061323 18 45 0.0 0.0 0.00 0.00 0.00 96 1021.6
20260906055322 19 45 0.0 0.0 0.00 0.00 0.00 95 1021.7
20260906054321 19 45 0.0 0.0 0.00 0.00 0.00 96 1021.6
20260906054220 19 45 0.0 0.0 0.00 0.00 0.00 95 1021.5
20260906053223 19 45 0.0 0.0 0.00 0.00 0.00 95 1021.6
20260906052222 20 45 0.0 0.0 0.00 0.00 0.00 96 1021.5
20260906051221 20 22 0.0 0.0 0.00 0.00 0.00 95 1021.4
20260906051121 20 22 0.0 0.0 0.00 0.00 0.00 96 1021.4
20260906051019 20 22 0.0 0.0 0.00 0.00 0.00 95 1021.5
20260906045935 20 22 0.0 0.0 0.00 0.00 0.00 96 1021.4
20260906045034 20 42 0.0 0.0 0.00 0.00 0.00 96 1021.5
20260906044034 20 22 0.0 0.0 0.00 0.00 0.00 96 1021.6
20260906043036 20 45 0.0 0.0 0.00 0.00 0.00 96 1021.6
20260906042052 20 58 0.0 0.0 0.00 0.00 0.00 96 1021.6
20260906041134 20 58 0.0 0.0 0.00 0.00 0.00 96 1021.4
20260906040136 20 48 0.0 0.0 0.00 0.00 0.00 95 1021.3
20260906034235 21 67 0.0 0.0 0.00 0.00 0.00 96 1021.0
20260906032350 21 67 0.0 0.0 0.00 0.00 0.00 96 1020.8
20260906031433 21 67 0.0 0.0 0.00 0.00 0.00 96 1020.8
20260906031334 21 67 0.0 0.0 0.00 0.00 0.00 96 1020.8
20260906030336 21 67 0.0 0.0 0.00 0.00 0.00 95 1020.9
20260906024433 21 67 0.0 0.0 0.00 0.00 0.00 94 1020.4
20260906023449 21 67 0.0 0.0 0.00 0.00 0.00 94 1020.4
20260906022533 20 45 0.0 0.0 0.00 0.00 0.00 95 1020.0
20260906021535 20 67 0.0 0.0 0.00 0.00 0.00 95 1019.9
20260906020534 20 45 0.0 0.0 0.00 0.00 0.00 94 1019.9
20260906015533 21 45 0.0 0.0 0.00 0.00 0.00 94 1019.6
20260906012534 21 45 0.0 0.0 0.00 0.00 0.00 93 1018.9
20260906011633 21 45 0.0 0.0 0.00 0.00 0.00 93 1018.9
20260906011537 21 45 0.0 0.0 0.00 0.00 0.00 93 1018.9
20260906010533 21 45 0.0 0.0 0.00 0.00 0.00 93 1018.8
20260906005533 21 67 0.0 0.0 0.00 0.00 0.00 92 1018.6
20260906004537 22 45 0.0 0.0 0.00 0.00 0.00 92 1018.8
20260906003536 22 45 0.0 0.0 0.00 0.00 0.00 90 1018.7
20260906002633 22 143 0.0 0.0 0.00 0.00 0.00 90 1018.7
20260906001651 22 67 0.0 0.0 0.00 0.00 0.00 88 1018.4
20260906000633 22 67 0.0 0.0 0.00 0.00 0.00 88 1018.2
20260905235649 23 67 0.0 0.0 0.00 0.00 0.00 86 1018.6
20260905234635 23 67 0.0 0.0 0.00 0.00 0.00 84 1018.5
20260905233634 23 45 0.0 0.0 0.00 0.00 0.00 84 1018.7
20260905232634 23 180 0.0 0.0 0.00 0.00 0.00 83 1018.5
20260905231634 23 22 0.0 0.0 0.00 0.00 0.00 83 1018.7
20260905230635 23 42 0.0 0.0 0.00 0.00 0.00 82 1018.6
20260905225634 23 48 0.0 0.0 0.00 0.00 0.00 80 1018.8
20260905224637 24 32 0.0 0.0 0.00 0.00 0.00 80 1018.8
20260905223634 24 60 0.0 0.0 0.00 0.00 0.00 80 1018.9
20260905222634 25 26 0.0 0.0 0.00 0.00 0.00 79 1018.8
20260905220634 25 57 0.0 0.0 0.00 0.00 0.00 79 1018.6
20260905215733 26 50 0.0 0.0 0.00 0.00 0.00 78 1018.4
20260905214750 26 87 0.0 0.0 0.00 0.00 0.00 78 1018.4
20260905213748 26 66 0.0 0.0 0.00 0.00 0.00 78 1018.7
20260905212749 26 58 0.0 0.0 0.00 0.00 0.00 77 1018.8
20260905211748 27 65 0.0 0.0 0.00 0.00 0.00 76 1018.7
20260905210749 28 90 0.0 0.0 0.00 0.00 0.00 74 1018.6
20260905205833 28 112 0.0 0.0 0.00 0.00 0.00 75 1018.8
20260905204849 28 157 0.0 0.0 0.00 0.00 0.00 75 1018.6
20260905202935 28 128 0.0 0.0 0.00 0.00 0.00 75 1018.8
20260905201933 28 157 0.0 0.0 0.00 0.00 0.00 73 1018.7
20260905200952 28 169 0.0 0.0 0.00 0.00 0.00 74 1018.8
20260905200034 28 157 0.0 0.0 0.00 0.00 0.00 72 1018.6
20260905195934 28 164 0.0 0.0 0.00 0.00 0.00 71 1018.7
20260905194934 29 112 0.0 0.0 0.00 0.00 0.00 71 1018.7
20260905193934 29 49 0.0 0.0 0.00 0.00 0.00 74 1019.0
20260905192934 28 152 0.0 0.0 0.00 0.00 0.00 76 1019.0
20260905191033 29 66 0.0 0.0 0.00 0.00 0.00 74 1018.9
20260905190035 29 163 0.0 0.0 0.00 0.00 0.00 76 1019.3
20260905185033 28 82 0.0 0.0 0.00 0.00 0.00 77 1019.2
20260905182133 28 63 0.0 0.0 0.00 0.00 0.00 79 1019.1
20260905181151 27 67 0.0 0.0 0.00 0.00 0.00 77 1019.2
20260905180233 27 25 0.0 0.0 0.00 0.00 0.00 76 1019.3
20260905175234 28 67 0.0 0.0 0.00 0.00 0.00 78 1019.3
20260905174234 28 110 0.0 0.0 0.00 0.00 0.00 83 1019.3
20260905174133 28 106 0.0 0.0 0.00 0.00 0.00 83 1019.5
20260905173135 27 67 0.0 0.0 0.00 0.03 0.00 86 1019.6
20260905171234 26 67 0.0 0.0 0.00 0.10 0.00 90 1019.9
20260905171136 26 67 0.0 0.0 0.00 0.13 0.00 89 1019.9
20260905170134 26 67 0.0 0.0 0.00 0.20 0.00 88 1019.8
20260905165151 26 37 0.0 0.0 0.00 0.58 0.00 90 1019.9
20260905164235 26 86 0.0 0.0 0.00 0.89 0.00 89 1019.9
20260905163233 26 81 0.0 0.0 0.00 0.89 0.00 89 1019.8
20260905162233 25 91 0.0 0.0 0.00 0.89 0.00 90 1019.8
20260905161233 25 40 0.0 0.0 0.00 0.89 0.00 91 1019.6
20260905160333 25 51 0.0 0.0 0.00 0.89 0.00 94 1019.6
20260905155351 24 59 0.0 0.0 0.00 0.89 0.00 96 1019.6
20260905154334 25 67 0.0 0.0 0.00 0.89 0.00 96 1019.5
20260905153333 25 66 0.0 0.0 0.00 0.89 0.00 96 1019.6
20260905151434 24 38 0.0 0.0 0.00 0.89 0.00 97 1019.7
20260905150433 23 61 0.0 0.0 0.00 0.89 0.00 97 1019.6
20260905145434 23 60 0.0 0.0 0.00 0.89 0.00 98 1019.3
20260905144432 23 67 0.0 0.0 0.00 0.89 0.00 97 1019.3
20260905143434 22 50 0.0 0.0 0.00 0.89 0.00 98 1019.2
20260905142531 22 90 0.0 0.0 0.00 0.89 0.00 97 1019.2
20260905135633 22 87 0.0 0.0 0.00 0.89 0.00 97 1019.1
20260905134633 22 53 0.0 0.0 0.00 0.89 0.00 98 1019.0
20260905133634 21 67 0.0 0.0 0.00 0.89 0.00 98 1018.7
20260905133550 21 67 0.0 0.0 0.00 0.89 0.00 98 1018.7
20260905132534 21 67 0.0 0.0 0.00 0.89 0.00 98 1018.6
20260905130635 21 75 0.0 0.0 0.00 0.89 0.00 98 1018.1